SCP
0 0 0 0 0 0 0 0 0 0 0 0 0 0 0 0 0 0 0 0 0 0 0 0 0 0 0 0 0 0 0 0 0 0 0 0 0 0 0 0 0 0 0
0 0 0 0 0 0 0 0 0 0 0 0 0 0 0 0 0 0 0 0 0 0 0 0 0 0 0 0 0 0 0 0 0 0 0 0 0 0 0 0 0 0 0
0 0 0 0 0 0 0 0 0 0 0 0 0 0 0 0 0 0 0 0 0 0 0 0 0 0 0 0 0 0 0 0 0 0 0 0 0 0 0 0 0 0 0
0 0 0 0 0 0 0 0 1 0 0 0 0 0 0 0 0 0 0 0 0 0 0 0 0 0 0 0 0 0 0 0 0 0 0 0 0 0 0 0 0 0 0
0 0 0 0 0 0 0 0 0 0 0 0 0 0 0 0 0 0 0 0 0 0 0 0 0 0 0 0 0 0 0 0 0 0 0 0 0 0 0 0 0 0 0
0 0 0 0 0 0 0 0 0 0 0 0 0 0 0 0 0 0 0 0 0 0 0 0 0 0 0 0 0 0 0 0 0 0 0 0 0 0 0 0 0 0 0
0 0 0 0 0 0 0 0 0 0 0 0 0 0 0 0 0 0 0 0 0 0 0 0 0 0 0 0 0 0 0 0 0 0 0 0 0 0 0 0 0 0 0
0 0 0 0 0 0 0 0 0 0 0 0 0 0 0 0 0 0 0 0 0 0 0 0 0 0 0 0 0 0 0 0 0 0 0 0 0 0 0 0 0 0 0
0 0 0 0 0 0 0 0 0 0 0 0 0 0 0 0 0 0 0 0 0 0 0 0 0 0 0 0 0 0 0 0 0 0 0 0 0 0 0 0 0 0 0
0 0 0 0 0 0 0 0 0 0 0 0 0 0 0 0 0 0 0 0 0 0 0 0 0 0 0 0 0 0 0 0 0 0 0 0 0 0 0 0 0 0 0
0 0 0 0 0 0 0 0 0 0 0 0 0 0 0 0 0 0 0 0 0 0 0 0 0 0 0 0 0 0 0 0 0 0 0 0 0 0 0 0 0 0 0
0 0 0 0 0 0 0 0 0 0 0 0 0 0 0 0 0 0 0 0 0 0 0 0 0 0 0 0 0 0 0 0 0 0 0 0 0 0 0 0 0 0 0
1 0 0 0 0 0 0 0 0 0 0 0 0 0 0 0 0 0 0 0 0 0 0 0 0 0 0 0 0 0 0 0 0 0 0 0 0 0 0 0 0 0 0
1 1 1 1 0 0 0 0 0 0 0 0 0 0 0 0 0 0 0 0 0 0 0 0 0 0 0 0 0 0 0 0 0 0 0 0 0 0 0 0 0 0 0
1 1 1 1 1 0 0 0 0 0 0 0 0 0 0 0 0 0 0 0 0 0 0 0 0 0 0 0 0 0 0 0 0 0 0 0 0 0 0 0 0 0 0
1 1 1 1 1 0 0 0 0 0 0 0 0 0 0 0 0 0 0 0 0 0 0 0 0 0 0 0 0 0 0 0 0 0 0 0 0 0 0 0 0 0 0
0 0 1 1 1 0 0 0 0 0 0 0 0 0 0 0 0 0 0 0 0 0 0 0 0 0 0 0 0 0 0 0 0 0 0 0 0 0 0 0 0 0 0
0 0 0 1 1 1 0 0 0 0 0 0 0 0 0 0 0 0 0 0 0 0 0 0 0 0 0 0 0 0 0 0 0 0 0 0 0 0 0 0 0 0 0
0 0 0 0 1 1 0 0 0 0 0 0 0 0 0 0 0 0 0 0 0 0 0 0 0 0 0 0 0 0 0 0 0 0 0 0 0 0 0 0 0 0 0
0 0 0 0 1 1 1 0 0 0 0 0 0 0 0 0 0 0 0 0 0 0 0 0 0 0 0 0 0 0 0 0 0 0 0 0 0 0 0 0 0 0 0
0 0 0 0 1 1 1 1 0 0 0 0 0 0 0 0 0 0 0 0 0 0 0 0 0 0 0 0 0 0 0 0 0 0 0 0 0 0 0 0 0 0 0
0 0 0 0 1 1 1 1 1 1 0 0 0 0 0 0 0 0 0 0 0 0 0 0 0 0 0 0 0 0 0 0 0 0 0 0 0 0 0 0 0 0 0
0 0 0 0 0 1 1 1 1 1 1 0 0 0 0 0 0 0 0 0 0 0 0 0 0 0 0 0 0 0 0 0 0 0 0 0 0 0 0 0 0 0 0
0 0 0 0 0 0 1 1 1 1 1 1 0 0 0 0 0 0 0 0 0 0 0 0 0 0 0 0 0 0 0 0 0 0 0 0 0 0 0 0 0 0 0
0 0 0 0 0 0 0 0 1 1 1 1 0 0 0 0 0 0 0 0 0 0 0 0 0 0 0 0 0 0 0 0 0 0 0 0 0 0 0 0 0 0 0
0 0 0 0 0 0 0 0 0 1 1 1 0 0 0 0 0 0 0 0 0 0 0 0 0 0 0 0 0 0 0 0 0 0 0 0 0 0 0 0 0 0 0
Wind_Speed
0 0 4 8 10 10 10 11 11 11 11 11 11 11 11 11 11 10 10 10 10 10 10 10 11 11 11 11 11 10 11 11 11 11 10 10 10 9 9 9 8 5 9
2 2 5 7 9 10 10 10 10 10 10 11 11 10 10 10 10 10 10 10 10 10 10 10 10 10 10 10 9 9 9 10 10 10 9 8 8 8 9 8 7 5 8
4 3 5 7 9 10 10 10 9 9 9 10 10 10 10 10 10 10 10 9 9 9 9 10 9 9 9 8 8 8 9 9 9 9 8 5 4 7 7 7 7 7 7
5 4 5 7 9 9 10 10 9 9 9 9 9 9 9 9 9 9 9 9 8 9 9 9 9 8 8 7 7 7 8 8 8 8 4 3 3 5 6 6 6 6 6
5 4 5 8 8 9 9 9 9 9 9 9 8 8 8 8 8 8 8 8 8 8 8 8 8 8 8 7 7 7 7 8 8 6 3 3 3 5 5 5 5 5 5
5 5 6 8 9 9 9 9 9 8 9 9 8 8 8 8 8 8 7 7 7 7 7 7 7 7 7 7 7 7 7 7 6 3 3 3 3 5 5 5 4 4 4
6 5 5 8 9 9 8 8 8 8 8 8 8 8 8 7 7 7 7 6 6 6 6 6 6 7 6 6 6 7 7 7 4 3 3 3 3 5 5 5 4 3 3
6 5 5 8 8 8 7 7 8 7 7 7 7 7 7 7 7 6 6 6 6 5 5 6 6 6 6 6 6 6 7 6 4 3 3 3 4 6 6 5 4 4 4
7 6 5 5 6 7 8 8 8 8 7 7 7 7 7 7 6 7 6 6 6 6 6 6 6 6 6 6 6 6 6 6 3 2 3 2 5 6 6 5 5 5 5
7 6 6 5 5 5 5 7 8 7 7 7 7 7 6 6 6 7 6 7 6 6 6 6 6 6 6 6 6 6 6 5 3 3 2 3 6 6 6 5 5 6 6
7 6 5 5 5 5 4 5 6 6 7 7 6 7 5 3 3 4 5 6 6 6 6 6 6 7 6 6 6 6 5 2 3 2 2 5 6 6 6 6 5 6 6
5 4 4 4 4 4 4 4 3 4 4 4 4 4 3 3 3 3 5 6 6 6 6 6 6 6 5 3 4 5 2 3 2 2 3 6 7 6 6 6 6 6 6
3 4 4 4 3 3 3 3 2 2 3 3 4 3 3 3 2 3 2 3 4 4 3 4 4 3 2 2 2 2 2 2 2 2 4 7 7 7 6 6 6 6 6
4 4 4 4 3 3 3 2 2 2 2 2 3 3 2 2 2 2 2 2 2 2 2 2 2 3 2 2 2 2 2 2 2 2 3 7 8 7 7 7 7 7 7
4 4 4 4 3 3 3 2 3 2 2 2 2 3 3 2 2 2 2 2 2 2 2 2 2 3 3 3 3 3 3 2 2 2 3 6 7 8 8 8 8 8 8
4 4 3 4 3 3 3 3 2 2 2 2 2 3 3 2 2 2 2 2 2 2 2 1 2 2 2 2 3 3 3 2 2 2 2 4 7 8 8 8 8 9 9
3 3 4 3 4 3 3 3 3 2 2 3 3 3 3 3 2 2 2 2 2 2 2 1 2 2 2 2 3 3 2 2 2 2 3 2 4 7 9 9 9 10 10
3 4 4 3 4 3 3 3 2 2 3 3 3 3 4 4 3 2 2 2 3 2 2 2 2 2 2 2 2 2 2 2 2 2 2 3 3 3 6 9 10 10 11
3 3 4 4 3 3 3 3 3 3 3 3 3 3 4 4 4 2 2 2 3 2 2 2 2 2 2 3 3 2 2 2 2 2 2 2 3 3 3 7 9 10 11
3 3 3 3 3 3 2 2 2 3 3 3 3 3 4 4 4 3 2 3 3 2 2 2 2 2 2 3 3 3 2 2 1 1 2 2 3 3 3 4 4 7 11
4 4 4 3 3 2 1 1 1 2 2 2 3 4 4 4 4 3 3 3 3 2 3 3 2 2 2 2 2 3 2 1 1 1 1 2 3 3 4 4 4 4 5
5 5 4 3 3 2 1 1 0 1 1 1 2 3 4 4 4 3 3 3 3 2 3 3 3 1 2 2 1 2 3 3 2 2 1 1 2 3 4 4 4 4 4
5 5 4 4 4 3 2 2 2 1 1 2 3 3 4 4 4 4 3 3 3 2 2 2 2 2 2 1 1 1 1 3 4 2 1 1 2 2 2 2 3 4 4
4 4 4 5 4 4 3 2 1 1 1 1 2 2 3 3 3 3 4 3 3 2 2 2 2 2 1 2 2 1 1 1 2 4 2 1 2 3 2 3 3 3 4
3 3 4 4 5 5 4 3 1 1 1 1 2 3 3 3 3 4 4 3 3 3 3 3 2 2 1 1 1 2 2 2 1 3 5 4 3 2 2 2 2 2 3
4 4 4 4 5 5 5 5 3 2 1 2 3 3 3 3 3 4 4 3 3 3 3 3 2 2 1 1 1 1 1 1 2 2 4 5 5 3 3 2 2 2 3
Wind_Direction
260 212 127 123 119 114 111 108 106 104 104 101 99 96 96 92 88 86 83 83 80 79 77 75 73 70 68 67 65 63 58 53 49 46 46 50 55 58 59 57 52 45 57
141 132 120 121 118 115 111 109 109 106 106 103 101 98 96 94 90 87 82 80 82 80 78 77 75 72 70 68 65 62 58 53 47 44 40 37 42 52 55 54 56 58 56
106 107 111 112 116 114 111 110 109 109 108 106 102 100 97 94 90 86 82 80 78 77 78 76 73 70 68 65 62 59 56 51 47 42 35 18 18 41 50 50 51 50 49
100 99 106 105 108 110 110 109 106 105 106 105 101 100 98 94 89 84 79 76 74 73 72 70 68 66 63 60 58 57 53 48 43 38 28 5 359 27 39 45 43 45 42
83 78 94 100 105 107 106 105 105 102 102 102 99 98 95 91 87 81 76 72 72 71 68 65 63 62 56 52 52 51 48 45 43 36 14 360 353 9 23 29 35 40 33
78 74 84 89 96 102 103 102 102 100 100 99 96 92 89 85 83 78 73 70 66 65 63 61 59 57 51 47 45 42 40 41 40 26 7 352 345 357 9 19 28 32 23
80 70 78 80 84 87 90 96 99 96 95 96 93 89 86 82 78 72 67 62 57 57 57 55 53 50 43 36 35 33 33 32 37 18 2 348 343 350 357 8 11 8 6
80 67 69 71 71 72 77 79 83 87 86 87 88 85 81 77 73 65 59 54 50 50 50 49 46 41 35 30 30 28 25 25 23 9 354 341 339 344 344 350 350 344 341
74 68 56 54 59 63 65 67 68 70 71 75 77 78 74 67 62 56 47 42 39 37 41 41 37 32 28 25 26 25 20 19 19 358 343 334 333 340 340 342 342 338 336
64 59 52 47 48 51 56 59 58 59 58 61 60 62 66 63 54 48 39 32 34 32 32 35 31 26 21 17 18 17 15 13 5 351 333 322 331 339 340 343 344 345 343
60 53 47 48 45 46 53 53 51 51 50 54 51 51 50 45 44 41 31 24 24 25 24 26 25 24 21 15 13 12 11 360 344 337 322 326 332 334 333 336 338 339 341
62 52 42 47 46 42 51 54 46 46 47 47 42 40 38 34 32 34 24 22 20 18 19 23 23 22 21 6 3 9 1 344 344 331 327 328 331 334 334 335 338 340 341
70 53 42 43 46 49 50 55 45 42 42 42 38 32 31 29 25 27 20 12 11 14 15 12 15 11 5 356 350 350 346 347 338 325 331 335 335 337 340 344 346 347 347
61 42 34 36 42 46 56 57 53 48 44 37 25 26 32 28 21 13 12 2 10 9 4 4 1 353 352 350 346 346 346 342 332 328 336 343 344 344 345 344 344 343 342
53 34 30 31 38 44 58 55 59 51 48 41 35 25 32 34 17 7 1 1 356 0 2 353 347 343 343 343 346 347 335 330 330 338 341 355 356 352 346 344 345 342 341
36 23 23 26 31 44 56 56 53 48 41 38 36 22 25 28 17 7 356 351 350 347 339 328 319 324 324 332 336 333 326 329 345 351 349 350 355 351 346 346 347 344 341
23 19 19 30 30 41 57 58 51 41 38 35 23 19 20 21 15 9 0 351 342 333 329 330 333 341 341 340 328 325 330 332 343 351 349 352 349 356 355 349 347 346 343
32 28 21 30 33 42 51 55 56 48 42 33 24 18 17 13 12 15 7 348 338 347 352 350 349 341 334 327 318 320 321 326 335 348 357 358 352 349 351 357 352 349 346
36 31 28 30 35 38 44 46 47 47 43 31 27 20 11 10 10 12 3 354 349 355 1 353 351 342 328 325 310 308 305 300 307 345 349 349 355 354 352 354 358 355 350
30 34 32 32 29 27 41 43 41 39 32 24 24 18 11 6 6 10 7 1 357 357 360 352 337 349 331 319 313 311 301 291 296 333 335 345 351 355 358 357 352 350 352
23 25 25 27 22 30 27 25 19 9 8 13 14 16 13 8 5 9 4 2 2 359 350 342 329 339 350 347 335 320 312 299 310 323 335 353 352 354 3 4 356 352 346
22 16 12 11 7 19 20 18 47 0 4 4 358 10 10 9 4 3 7 357 351 343 357 1 356 343 342 8 347 324 323 320 327 318 328 338 348 356 357 354 352 352 345
16 7 3 360 4 9 21 48 45 37 16 9 1 3 3 7 8 1 357 355 353 351 347 342 349 358 329 331 3 342 320 295 313 302 304 339 351 340 331 336 354 344 342
0 360 6 6 9 11 15 46 46 48 349 324 334 341 351 6 7 2 358 358 357 352 352 349 2 338 341 335 321 320 279 268 288 304 306 327 331 323 317 328 330 332 337
4 6 7 12 12 12 16 18 37 35 343 338 360 356 357 8 10 7 2 2 1 358 357 358 358 357 351 332 321 312 306 311 270 273 293 307 312 294 295 289 292 318 333
9 13 12 17 12 12 20 23 19 12 356 3 5 356 353 357 357 4 1 0 355 355 352 343 341 340 328 315 307 326 320 293 289 278 282 297 298 292 288 273 283 311 317